Location: Hall+in+Tirol
(47.2830°N, 11.5170°E)
Time: 03:53:42
(UTC+02:00)

Amateur Radio Satellites - All Passes

Search period start: 25 April 2015 03:23
Search period end: 26 April 2015 03:23
Location: Hall+in+Tirol, 47.2830°N, 11.5170°E

Satellite Date Start Highest point End Downlink Frequencies (MHz)
Time Altitude Azimuth
CUSAT 1 25 Apr 03:37:08 03:43:32 34° 66° (ENE) 03:50:53 437.405
JAS-2 25 Apr 03:43:18 03:45:35 12° 78° (ENE) 03:48:10 435.910
AIST 2 25 Apr 03:49:28 03:52:24 19° 113° (ESE) 03:55:27 435.215
STARS 25 Apr 03:54:09 03:58:25 48° 261° (W) 04:02:43 437.465
GONETS M04 25 Apr 03:54:10 04:02:54 59° 74° (ENE) 04:11:36
Oscar 19 25 Apr 03:54:36 03:59:18 34° 294° (WNW) 04:03:56 437.125/150
DANDE 25 Apr 04:08:58 04:15:35 43° 70° (ENE) 04:23:28 436.750
AO-7 25 Apr 04:25:40 04:32:42 30° 93° (E) 04:39:55 29.400- 29.500
ITAMSAT 1 25 Apr 04:26:32 04:31:35 52° 290° (WNW) 04:36:35 435.822/435.867
BEESAT 2 25 Apr 04:32:25 04:36:31 66° 309° (NW) 04:40:42 435.950
BEESAT 3 25 Apr 04:32:31 04:36:35 56° 312° (NW) 04:40:39 437.485
KKS-1 25 Apr 04:35:48 04:38:12 14° 272° (W) 04:40:26 437.445
M-CUBED/EXP-1 PRIME 25 Apr 04:47:24 04:50:30 18° 54° (NE) 04:53:43 437.505
Gurwin Techsat 1B 25 Apr 04:50:13 04:55:08 39° 293° (WNW) 05:00:00 435.225
MOZHAYETS 4 25 Apr 04:51:56 04:56:34 74° 75° (ENE) 05:01:14
HORYU 2 25 Apr 05:05:38 05:10:11 84° 104° (ESE) 05:14:40 437.375
CUSAT 1 25 Apr 05:19:28 05:26:42 65° 263° (W) 05:34:52 437.405
Cosmos 2499 25 Apr 05:24:46 05:32:06 39° 67° (ENE) 05:38:59 435.465 / 435.565
JAS-2 25 Apr 05:25:38 05:32:17 75° 102° (ESE) 05:38:04 435.910
AIST 2 25 Apr 05:26:23 05:30:37 59° 311° (NW) 05:34:53 435.215
AUBIESAT-1 25 Apr 05:29:20 05:33:36 33° 61° (ENE) 05:37:55 437.475
PRISM 25 Apr 05:49:40 05:52:22 17° 62° (ENE) 05:55:09 437.425
GONETS M04 25 Apr 05:51:33 05:59:26 36° 275° (W) 06:07:05
DANDE 25 Apr 05:52:08 05:59:00 50° 266° (W) 06:06:57 436.750
STRAND 1 25 Apr 06:08:44 06:12:49 25° 63° (ENE) 06:16:59 437.568
BEESAT 2 25 Apr 06:12:59 06:15:27 15° 331° (NNW) 06:17:51 435.950
BEESAT 3 25 Apr 06:13:21 06:15:29 13° 333° (NNW) 06:17:33 437.485
AO-7 25 Apr 06:17:57 06:26:14 70° 294° (WNW) 06:34:29 29.400- 29.500
M-CUBED/EXP-1 PRIME 25 Apr 06:19:59 06:24:49 81° 252° (WSW) 06:29:41 437.505
CUBESAT XI-V 25 Apr 06:25:43 06:30:15 57° 72° (ENE) 06:34:49 437.345
MOZHAYETS 4 25 Apr 06:31:54 06:34:25 14° 273° (W) 06:36:44
HORYU 2 25 Apr 06:43:54 06:46:15 14° 301° (WNW) 06:48:25 437.375
AUBIESAT-1 25 Apr 07:03:53 07:08:19 36° 258° (WSW) 07:12:45 437.475
CUSAT 1 25 Apr 07:04:36 07:08:36 15° 279° (W) 07:12:17 437.405
AIST 2 25 Apr 07:07:39 07:10:07 15° 333° (NNW) 07:12:30 435.215
CUTE-I 25 Apr 07:08:46 07:13:43 39° 97° (E) 07:18:42 437.470
JAS-2 25 Apr 07:11:35 07:16:38 23° 305° (NW) 07:21:07 435.910
Cosmos 2499 25 Apr 07:17:57 07:25:30 48° 271° (W) 07:32:26 435.465 / 435.565
Cubesat XI-IV 25 Apr 07:18:00 07:23:08 47° 99° (E) 07:28:17 437.490
PRISM 25 Apr 07:23:23 07:27:29 54° 259° (W) 07:31:34 437.425
STRAND 1 25 Apr 07:46:47 07:51:46 50° 261° (W) 07:56:45 437.568
O/OREOS (USA 219) 25 Apr 07:52:52 07:56:54 32° 54° (NE) 08:00:57 437.305
M-CUBED/EXP-1 PRIME 25 Apr 07:58:43 08:00:26 11° 270° (W) 08:01:54 437.505
CUBESAT XI-V 25 Apr 08:04:57 08:08:08 18° 271° (W) 08:11:10 437.345
AO-7 25 Apr 08:12:01 08:17:46 21° 315° (NW) 08:23:16 29.400- 29.500
CUTE-I 25 Apr 08:49:00 08:53:45 33° 295° (WNW) 08:58:26 437.470
CANX-2 25 Apr 08:54:29 08:56:58 15° 88° (E) 08:59:36 2200.000
Cubesat XI-IV 25 Apr 08:58:32 09:03:03 28° 297° (WNW) 09:07:29 437.490
HO-68 25 Apr 08:59:57 09:05:41 26° 90° (E) 09:11:35 435.675
GOMX 1 25 Apr 09:01:17 09:05:34 27° 93° (E) 09:10:08 467.674
PCSat 25 Apr 09:02:50 09:08:01 49° 116° (ESE) 09:13:16 145.827
CUTE 1.7 + AOD 2 25 Apr 09:03:31 09:06:19 17° 89° (E) 09:09:14 437.475
AAUSAT CUBESAT 2 25 Apr 09:07:59 09:09:01 11° 85° (E) 09:10:17 437.432
BRITE-PL 25 Apr 09:08:59 09:13:48 45° 98° (E) 09:18:58 437.365/2234.400
Cosmos 2491 25 Apr 09:30:33 09:38:40 39° 67° (ENE) 09:46:52 435.465 / 435.565
O/OREOS (USA 219) 25 Apr 09:32:18 09:36:20 32° 254° (WSW) 09:40:18 437.305
BEESAT 3 25 Apr 09:34:59 09:35:20 10° 20° (NNE) 09:35:48 437.485
DOVE 4 25 Apr 09:41:39 09:46:29 43° 97° (E) 09:51:29 437.250
ANTELSAT 25 Apr 09:45:54 09:49:14 21° 63° (ENE) 09:52:44 437.575/2403.000
POLYITAN 1 25 Apr 09:47:07 09:47:37 10° 57° (ENE) 09:48:19 437.675
DUCHIFAT 1 25 Apr 09:49:17 09:49:40 10° 58° (ENE) 09:50:16 145.980
COMPASS 1 25 Apr 09:57:52 10:01:54 41° 98° (E) 10:05:53 437.405
QB50P1 25 Apr 10:04:07 10:06:26 15° 61° (ENE) 10:08:54 145.935-145.965
ZACube-1 25 Apr 10:06:40 10:09:06 14° 87° (E) 10:11:43 437.345
Oscar 11 25 Apr 10:07:15 10:10:42 23° 92° (E) 10:14:12 145.826/435.025
SEEDS 25 Apr 10:21:58 10:26:15 89° 291° (WNW) 10:30:29 437.485
DELFI C3 25 Apr 10:22:13 10:25:29 24° 93° (E) 10:28:47 145.870
QB50P2 25 Apr 10:28:36 10:32:03 25° 66° (ENE) 10:35:34 145.880/145.840
CANX-2 25 Apr 10:29:06 10:33:21 58° 287° (WNW) 10:37:31 2200.000
AIST 2 25 Apr 10:30:04 10:31:10 11° 20° (NNE) 10:32:22 435.215
CINEMA 3 25 Apr 10:32:01 10:36:59 67° 101° (E) 10:42:00 145.822/145.860
TIGRISAT 25 Apr 10:35:14 10:39:38 55° 72° (ENE) 10:44:12 435.000
CUBEBUG 2 25 Apr 10:36:51 10:41:23 41° 97° (E) 10:45:55 437.445
CUTE 1.7 + AOD 2 25 Apr 10:38:24 10:42:36 51° 288° (WNW) 10:46:44 437.475
GOMX 1 25 Apr 10:39:03 10:43:51 45° 290° (WNW) 10:48:54 467.674
UNISAT 6 25 Apr 10:39:06 10:43:35 62° 72° (ENE) 10:48:12 437.425
DX 1 25 Apr 10:39:55 10:42:45 17° 90° (E) 10:45:43 434.975-435.025
YUBILEINY 25 Apr 10:40:53 10:48:39 38° 85° (E) 10:56:35 435.215
AAUSAT CUBESAT 2 25 Apr 10:41:04 10:45:18 79° 286° (WNW) 10:49:27 437.432
PCSat 25 Apr 10:46:44 10:51:40 34° 317° (NW) 10:56:35 145.827
NANOSAT C BR1 25 Apr 10:46:50 10:50:41 36° 69° (ENE) 10:54:35 145.865
HO-68 25 Apr 10:46:56 10:54:07 71° 291° (WNW) 11:01:14 435.675
BRITE-PL 25 Apr 10:47:57 10:52:11 28° 294° (WNW) 10:56:34 437.365/2234.400
POPSAT HIP 1 25 Apr 10:49:35 10:53:29 38° 69° (ENE) 10:57:28 437.405
AIST 1 25 Apr 10:57:24 10:58:47 11° 62° (ENE) 11:00:22
UWE-3 25 Apr 11:04:37 11:09:18 63° 101° (E) 11:13:57 435.000/436.395/437.385
BEESAT 3 25 Apr 11:10:48 11:14:35 34° 43° (NE) 11:18:21 437.485
BEESAT 2 25 Apr 11:11:13 11:14:55 30° 41° (NE) 11:18:36 435.950
50 SAT 25 Apr 11:12:20 11:15:09 18° 91° (E) 11:18:04 437.505
FUNcube-1 25 Apr 11:16:18 11:20:54 66° 101° (E) 11:25:29 145.935
BUGSAT 1 25 Apr 11:18:22 11:22:17 53° 72° (ENE) 11:26:14 437.445
POLYITAN 1 25 Apr 11:18:37 11:22:50 79° 75° (ENE) 11:27:07 437.675
DOVE 4 25 Apr 11:19:44 11:24:05 29° 294° (WNW) 11:28:32 437.250
DUCHIFAT 1 25 Apr 11:20:37 11:24:49 80° 75° (ENE) 11:29:03 145.980
ANTELSAT 25 Apr 11:21:14 11:25:41 53° 261° (W) 11:30:16 437.575/2403.000
UKube-1 25 Apr 11:23:14 11:27:23 43° 99° (E) 11:31:31 .
Cosmos 2491 25 Apr 11:27:23 11:35:56 55° 269° (W) 11:44:24 435.465 / 435.565
COMPASS 1 25 Apr 11:34:06 11:37:21 21° 295° (WNW) 11:40:31 437.405
QB50P1 25 Apr 11:37:39 11:41:51 67° 259° (W) 11:46:05 145.935-145.965
ZACube-1 25 Apr 11:41:25 11:46:02 71° 286° (WNW) 11:50:37 437.345
HUMSAT D 25 Apr 11:42:41 11:47:02 62° 101° (E) 11:51:19 437.325/437.525
Oscar 11 25 Apr 11:42:58 11:47:04 39° 290° (WNW) 11:51:05 145.826/435.025
VELOX 1 25 Apr 11:43:15 11:47:21 36° 97° (E) 11:51:28 145.980
CUBEBUG 1 25 Apr 11:51:12 11:54:36 22° 92° (E) 11:58:05 437.445
DELFI C3 25 Apr 11:57:02 12:00:43 33° 291° (WNW) 12:04:20 145.870
Cosmos 2504 25 Apr 11:57:17 11:57:35 10° 70° (ENE) 11:58:36 435.465 / 435.565
Oscar 19 25 Apr 11:59:37 12:01:36 12° 55° (NE) 12:03:48 437.125/150
SEEDS 25 Apr 11:59:57 12:01:26 11° 301° (WNW) 12:02:43 437.485
AISAT 25 Apr 12:00:40 12:05:04 55° 100° (E) 12:09:28 437.250
QB50P2 25 Apr 12:03:55 12:07:49 35° 264° (W) 12:11:44 145.880/145.840
SO-50 25 Apr 12:04:49 12:08:57 32° 117° (ESE) 12:13:15 436.795
AIST 2 25 Apr 12:07:02 12:11:00 36° 43° (NE) 12:14:55 435.215
CINEMA 3 25 Apr 12:10:13 12:13:45 19° 298° (WNW) 12:17:11 145.822/145.860
TIGRISAT 25 Apr 12:13:34 12:16:48 18° 271° (W) 12:19:57 435.000
CUBEBUG 2 25 Apr 12:13:53 12:17:54 27° 294° (WNW) 12:21:51 437.445
DX 1 25 Apr 12:15:07 12:19:23 53° 289° (WNW) 12:23:38 434.975-435.025
UNISAT 6 25 Apr 12:17:53 12:20:52 16° 272° (W) 12:23:43 437.425
NANOSAT C BR1 25 Apr 12:23:13 12:26:39 24° 267° (W) 12:30:04 145.865
POPSAT HIP 1 25 Apr 12:26:12 12:29:33 22° 268° (W) 12:32:51 437.405
AIST 1 25 Apr 12:32:52 12:37:09 81° 262° (W) 12:41:25
PCSat 25 Apr 12:34:45 12:36:51 12° 341° (NNW) 12:38:50 145.827
HO-68 25 Apr 12:36:07 12:40:45 18° 311° (NW) 12:45:08 435.675
YUBILEINY 25 Apr 12:36:34 12:45:14 56° 287° (WNW) 12:53:53 435.215
ESTCUBE 1 25 Apr 12:37:03 12:41:33 72° 102° (ESE) 12:46:02 437.505/2401.250
UWE-3 25 Apr 12:42:08 12:45:24 19° 298° (WNW) 12:48:33 435.000/436.395/437.385
50 SAT 25 Apr 12:46:20 12:50:13 43° 289° (WNW) 12:54:02 437.505
TISAT 1 25 Apr 12:46:50 12:49:51 19° 91° (E) 12:52:59 437.305
BEESAT 3 25 Apr 12:48:53 12:52:35 32° 242° (WSW) 12:56:11 437.485
BEESAT 2 25 Apr 12:49:16 12:53:07 37° 241° (WSW) 12:56:53 435.950
FUNcube-1 25 Apr 12:53:43 12:56:47 17° 298° (WNW) 12:59:43 145.935
BUGSAT 1 25 Apr 12:55:46 12:58:10 15° 271° (W) 13:00:26 437.445
POLYITAN 1 25 Apr 12:58:02 12:59:26 11° 274° (W) 13:00:34 437.675
Gurwin Techsat 1B 25 Apr 12:58:30 13:00:32 12° 54° (NE) 13:02:47 435.225
UKube-1 25 Apr 12:59:54 13:03:18 22° 296° (WNW) 13:06:37 .
DUCHIFAT 1 25 Apr 13:00:04 13:01:18 11° 274° (W) 13:02:18 145.980
SPROUT 25 Apr 13:14:00 13:18:11 45° 98° (E) 13:22:21 437.525
ISS 25 Apr 13:14:49 13:17:54 41° 146° (SSE) 13:21:01 145.825
HUMSAT D 25 Apr 13:19:33 13:22:21 17° 298° (WNW) 13:25:01 437.325/437.525
VELOX 1 25 Apr 13:20:02 13:23:49 27° 294° (WNW) 13:27:31 145.980
ZACube-1 25 Apr 13:20:33 13:21:38 11° 303° (WNW) 13:22:28 437.345
CUBEBUG 1 25 Apr 13:27:03 13:31:09 41° 290° (WNW) 13:35:15 437.445
Cosmos 2491 25 Apr 13:28:41 13:30:55 11° 290° (WNW) 13:32:28 435.465 / 435.565
Oscar 19 25 Apr 13:35:01 13:40:08 72° 72° (ENE) 13:45:20 437.125/150
AISAT 25 Apr 13:38:08 13:41:18 19° 298° (WNW) 13:44:22 437.250
AO-7 25 Apr 13:40:07 13:44:39 17° 40° (NE) 13:49:28 29.400- 29.500
Cosmos 2504 25 Apr 13:40:46 13:49:10 51° 90° (E) 13:57:32 435.465 / 435.565
SO-50 25 Apr 13:44:53 13:49:24 43° 317° (NW) 13:54:03 436.795
AIST 2 25 Apr 13:45:45 13:49:34 32° 242° (WSW) 13:53:16 435.215
JAS-2 25 Apr 13:59:00 14:02:30 14° 48° (NE) 14:06:14 435.910
ITAMSAT 1 25 Apr 14:08:29 14:13:26 49° 69° (ENE) 14:18:26 435.822/435.867
ITUPSAT 1 25 Apr 14:09:15 14:13:01 23° 92° (E) 14:16:52 437.325
RS-15 25 Apr 14:11:10 14:20:19 34° 108° (ESE) 14:29:53 29.354- 29.394
ESTCUBE 1 25 Apr 14:15:16 14:17:56 15° 300° (WNW) 14:20:29 437.505/2401.250
TISAT 1 25 Apr 14:21:50 14:25:55 46° 289° (WNW) 14:29:59 437.305
HORYU 2 25 Apr 14:32:35 14:35:09 16° 60° (ENE) 14:37:53 437.375
Gurwin Techsat 1B 25 Apr 14:34:24 14:39:39 69° 73° (ENE) 14:44:59 435.225
BEESAT 25 Apr 14:39:59 14:44:34 45° 99° (E) 14:49:09 436.000
YUBILEINY 25 Apr 14:40:10 14:44:40 14° 314° (NW) 14:48:42 435.215
SWISSCUBE 25 Apr 14:42:22 14:47:01 52° 99° (E) 14:51:40 437.505
KKS-1 25 Apr 14:47:12 14:48:08 11° 85° (E) 14:49:20 437.445
SPROUT 25 Apr 14:50:42 14:54:01 21° 296° (WNW) 14:57:14 437.525
ISS 25 Apr 14:51:04 14:54:16 49° 345° (NNW) 14:57:28 145.825
GONETS M04 25 Apr 15:09:30 15:12:13 12° 71° (ENE) 15:15:34
Oscar 19 25 Apr 15:16:43 15:20:07 17° 272° (W) 15:23:20 437.125/150
AO-7 25 Apr 15:27:51 15:35:48 55° 62° (ENE) 15:43:51 29.400- 29.500
SO-50 25 Apr 15:28:33 15:31:14 14° 340° (NNW) 15:33:52 436.795
Cosmos 2504 25 Apr 15:34:23 15:42:50 44° 291° (WNW) 15:51:03 435.465 / 435.565
JAS-2 25 Apr 15:38:38 15:46:09 53° 68° (ENE) 15:53:25 435.910
STARS 25 Apr 15:41:03 15:44:41 24° 93° (E) 15:48:21 437.465
ITUPSAT 1 25 Apr 15:46:36 15:51:10 45° 291° (WNW) 15:55:42 437.325
ITAMSAT 1 25 Apr 15:48:57 15:53:14 25° 268° (W) 15:57:26 435.822/435.867
PCSat 25 Apr 16:04:40 16:08:35 20° 33° (NNE) 16:12:35 145.827
HORYU 2 25 Apr 16:06:49 16:11:18 73° 257° (WSW) 16:15:50 437.375
Gurwin Techsat 1B 25 Apr 16:16:33 16:20:15 18° 272° (W) 16:23:46 435.225
BEESAT 25 Apr 16:18:19 16:22:12 25° 296° (WNW) 16:25:59 436.000
RS-15 25 Apr 16:20:53 16:31:48 77° 312° (NW) 16:43:05 29.354- 29.394
SWISSCUBE 25 Apr 16:20:54 16:24:35 22° 298° (WNW) 16:28:10 437.505
KKS-1 25 Apr 16:21:00 16:25:32 89° 268° (W) 16:30:02 437.445
ISS 25 Apr 16:27:56 16:31:01 37° 4° (N) 16:34:07 145.825
MOZHAYETS 4 25 Apr 16:45:31 16:47:52 14° 87° (E) 16:50:25
CUSAT 1 25 Apr 16:52:09 16:54:12 14° 80° (E) 16:56:43 437.405
CUTE-I 25 Apr 16:56:49 16:59:42 15° 56° (NE) 17:02:46 437.470
GONETS M04 25 Apr 16:58:47 17:07:17 60° 92° (E) 17:15:56
Cubesat XI-IV 25 Apr 17:05:39 17:09:04 18° 58° (ENE) 17:12:39 437.490
SO-50 25 Apr 17:13:03 17:13:53 10° 4° (N) 17:14:45 436.795
STARS 25 Apr 17:17:07 17:21:17 39° 291° (WNW) 17:25:24 437.465
AO-7 25 Apr 17:21:14 17:28:56 40° 263° (W) 17:36:34 29.400- 29.500
JAS-2 25 Apr 17:24:00 17:31:21 41° 266° (W) 17:38:23 435.910
DANDE 25 Apr 17:27:28 17:30:11 21° 85° (E) 17:33:36 436.750
Cosmos 2504 25 Apr 17:36:56 17:39:15 11° 317° (NW) 17:41:00 435.465 / 435.565
VERMONT LUNAR 25 Apr 17:40:30 17:42:20 14° 159° (SSE) 17:44:13 437.305
PCSat 25 Apr 17:47:28 17:52:56 79° 55° (NE) 17:58:22 145.827
KKS-1 25 Apr 17:59:32 18:01:33 13° 302° (WNW) 18:03:23 437.445
ISS 25 Apr 18:04:22 18:07:39 85° 21° (NNE) 18:10:55 145.825
Cosmos 2499 25 Apr 18:04:43 18:11:59 31° 84° (E) 18:19:17 435.465 / 435.565
PHONESAT 2.4 25 Apr 18:05:51 18:06:18 10° 153° (SSE) 18:06:51 2401.200-2431.200
MOZHAYETS 4 25 Apr 18:21:05 18:25:42 71° 285° (WNW) 18:30:15
CUBESAT XI-V 25 Apr 18:21:30 18:22:52 11° 85° (E) 18:24:28 437.345
CUSAT 1 25 Apr 18:32:19 18:36:02 54° 288° (WNW) 18:41:01 437.405
CUTE-I 25 Apr 18:33:45 18:39:05 85° 76° (ENE) 18:44:27 437.470
RS-15 25 Apr 18:36:17 18:46:17 37° 341° (NNW) 18:56:33 29.354- 29.394
Cubesat XI-IV 25 Apr 18:43:16 18:48:36 80° 255° (WSW) 18:53:59 437.490
AUBIESAT-1 25 Apr 18:43:56 18:45:44 13° 91° (E) 18:47:39 437.475
SO-50 25 Apr 18:52:49 18:56:21 19° 28° (NNE) 18:59:58 436.795
GONETS M04 25 Apr 18:56:41 19:04:42 36° 295° (WNW) 19:12:39
PRISM 25 Apr 19:03:43 19:06:16 16° 90° (E) 19:08:55 437.425
DANDE 25 Apr 19:09:56 19:13:11 30° 295° (WNW) 19:17:20 436.750
VERMONT LUNAR 25 Apr 19:16:21 19:19:11 25° 175° (S) 19:22:03 437.305
PCSat 25 Apr 19:32:08 19:35:47 18° 253° (WSW) 19:39:15 145.827
HO-68 25 Apr 19:32:15 19:38:09 29° 57° (ENE) 19:44:13 435.675
M-CUBED/EXP-1 PRIME 25 Apr 19:34:11 19:38:23 49° 104° (ESE) 19:42:14 437.505
PHONESAT 2.4 25 Apr 19:40:55 19:43:49 23° 169° (S) 19:46:45 2401.200-2431.200
ISS 25 Apr 19:41:19 19:43:42 18° 222° (SW) 19:46:00 145.825
SEEDS 25 Apr 19:44:13 19:45:51 12° 60° (ENE) 19:47:40 437.485
CANX-2 25 Apr 19:50:38 19:53:30 18° 63° (ENE) 19:56:30 2200.000
STRAND 1 25 Apr 19:53:58 19:58:49 43° 98° (E) 20:03:40 437.568
Cosmos 2499 25 Apr 19:55:46 20:04:38 69° 283° (WNW) 20:13:12 435.465 / 435.565
CUBESAT XI-V 25 Apr 19:56:26 20:01:04 87° 284° (WNW) 20:05:42 437.345
CUTE 1.7 + AOD 2 25 Apr 19:59:35 20:02:40 20° 64° (ENE) 20:05:52 437.475
MOZHAYETS 4 25 Apr 20:01:19 20:02:09 10° 304° (WNW) 20:02:45
AAUSAT CUBESAT 2 25 Apr 20:01:53 20:03:47 13° 61° (ENE) 20:05:51 437.432
CINEMA 3 25 Apr 20:03:25 20:04:55 12° 57° (ENE) 20:06:38 145.822/145.860
GOMX 1 25 Apr 20:13:14 20:17:03 34° 68° (ENE) 20:21:05 467.674
AUBIESAT-1 25 Apr 20:16:55 20:21:11 67° 293° (WNW) 20:25:05 437.475
CUTE-I 25 Apr 20:17:00 20:19:58 14° 274° (W) 20:22:42 437.470
BRITE-PL 25 Apr 20:23:47 20:27:53 65° 74° (ENE) 20:32:12 437.365/2234.400
Cubesat XI-IV 25 Apr 20:27:44 20:29:42 12° 276° (W) 20:31:22 437.490
UWE-3 25 Apr 20:32:43 20:33:20 10° 56° (ENE) 20:34:10 435.000/436.395/437.385
SO-50 25 Apr 20:32:48 20:37:46 72° 50° (NE) 20:42:42 436.795
PRISM 25 Apr 20:38:05 20:42:05 50° 289° (WNW) 20:46:03 437.425
FUNcube-1 25 Apr 20:43:09 20:43:45 10° 57° (ENE) 20:44:34 145.935
YUBILEINY 25 Apr 20:46:36 20:53:03 23° 56° (NE) 20:59:44 435.215
DOVE 4 25 Apr 20:50:50 20:55:00 54° 72° (ENE) 20:59:26 437.250
COMPASS 1 25 Apr 20:52:01 20:56:02 43° 71° (ENE) 21:00:06 437.405
RS-15 25 Apr 20:52:33 21:02:32 35° 15° (NNE) 21:12:59 29.354- 29.394
VERMONT LUNAR 25 Apr 20:53:29 20:56:09 21° 192° (SSW) 20:58:47 437.305
Oscar 11 25 Apr 21:05:03 21:08:44 27° 66° (ENE) 21:12:28 145.826/435.025
ZACube-1 25 Apr 21:05:55 21:08:44 17° 62° (ENE) 21:11:43 437.345
M-CUBED/EXP-1 PRIME 25 Apr 21:09:38 21:12:54 21° 304° (NW) 21:15:55 437.505
DELFI C3 25 Apr 21:12:57 21:16:12 24° 66° (ENE) 21:19:33 145.870
SEEDS 25 Apr 21:16:47 21:21:04 86° 255° (WSW) 21:25:23 437.485
HO-68 25 Apr 21:18:14 21:25:25 70° 256° (WSW) 21:32:38 435.675
PHONESAT 2.4 25 Apr 21:18:28 21:21:33 26° 186° (S) 21:24:35 2401.200-2431.200
CANX-2 25 Apr 21:24:51 21:29:05 55° 260° (W) 21:33:22 2200.000
AISAT 25 Apr 21:29:32 21:29:58 10° 56° (ENE) 21:30:38 437.250
STRAND 1 25 Apr 21:33:30 21:37:53 29° 296° (WNW) 21:42:12 437.568
CUTE 1.7 + AOD 2 25 Apr 21:34:07 21:38:18 48° 261° (W) 21:42:30 437.475
AAUSAT CUBESAT 2 25 Apr 21:34:39 21:38:52 78° 257° (WSW) 21:43:08 437.432
CUBESAT XI-V 25 Apr 21:35:50 21:37:52 13° 302° (WNW) 21:39:43 437.345
CINEMA 3 25 Apr 21:37:00 21:41:22 84° 77° (ENE) 21:45:59 145.822/145.860
CUBEBUG 2 25 Apr 21:38:10 21:42:23 48° 71° (ENE) 21:46:48 437.445
DX 1 25 Apr 21:38:31 21:41:54 23° 64° (ENE) 21:45:23 434.975-435.025
GOMX 1 25 Apr 21:51:45 21:55:19 25° 268° (W) 21:58:59 467.674
Cosmos 2499 25 Apr 21:53:52 21:59:41 18° 307° (NW) 22:04:59 435.465 / 435.565
AUBIESAT-1 25 Apr 21:54:42 21:55:07 10° 311° (NW) 21:55:22 437.475
50 SAT 25 Apr 22:01:06 22:03:48 18° 64° (ENE) 22:06:38 437.505
UWE-3 25 Apr 22:04:43 22:09:04 73° 74° (ENE) 22:13:36 435.000/436.395/437.385
BRITE-PL 25 Apr 22:05:05 22:07:06 13° 274° (W) 22:08:56 437.365/2234.400
ESTCUBE 1 25 Apr 22:05:47 22:07:51 13° 59° (ENE) 22:10:06 437.505/2401.250
O/OREOS (USA 219) 25 Apr 22:09:17 22:12:29 19° 102° (ESE) 22:15:48 437.305
SO-50 25 Apr 22:14:20 22:17:52 19° 248° (WSW) 22:21:14 436.795
FUNcube-1 25 Apr 22:14:58 22:19:18 74° 75° (ENE) 22:23:48 145.935
UKube-1 25 Apr 22:20:59 22:25:12 55° 72° (ENE) 22:29:28 .
COMPASS 1 25 Apr 22:28:45 22:31:57 20° 269° (W) 22:35:05 437.405
DOVE 4 25 Apr 22:30:26 22:33:16 16° 273° (W) 22:36:03 437.250
UNISAT 6 25 Apr 22:30:27 22:31:42 11° 84° (E) 22:33:13 437.425
Cosmos 2491 25 Apr 22:36:11 22:43:57 39° 86° (E) 22:51:54 435.465 / 435.565
HUMSAT D 25 Apr 22:37:21 22:41:32 65° 74° (ENE) 22:45:50 437.325/437.525
ZACube-1 25 Apr 22:40:21 22:44:40 61° 260° (W) 22:49:08 437.345
Oscar 11 25 Apr 22:40:50 22:44:49 34° 264° (W) 22:48:48 145.826/435.025
YUBILEINY 25 Apr 22:42:36 22:51:25 88° 81° (E) 23:00:09 435.215
VELOX 1 25 Apr 22:43:51 22:48:04 47° 70° (ENE) 22:52:19 145.980
DELFI C3 25 Apr 22:47:26 22:51:12 35° 264° (W) 22:54:59 145.870
CUBEBUG 1 25 Apr 22:50:27 22:54:07 28° 66° (ENE) 22:57:51 437.445
PHONESAT 2.4 25 Apr 22:57:05 22:59:08 14° 202° (SSW) 23:01:09 2401.200-2431.200
AISAT 25 Apr 23:01:28 23:05:50 74° 74° (ENE) 23:10:16 437.250
POLYITAN 1 25 Apr 23:03:32 23:04:28 11° 86° (E) 23:05:38 437.675
DUCHIFAT 1 25 Apr 23:05:00 23:05:43 10° 85° (E) 23:06:40 145.980
RS-15 25 Apr 23:06:04 23:17:28 68° 45° (NE) 23:29:25 29.354- 29.394
ANTELSAT 25 Apr 23:10:22 23:14:24 27° 93° (E) 23:18:25 437.575/2403.000
HO-68 25 Apr 23:11:10 23:14:40 13° 278° (W) 23:17:42 435.675
DX 1 25 Apr 23:13:52 23:17:58 40° 262° (W) 23:22:05 434.975-435.025
CUBEBUG 2 25 Apr 23:16:08 23:19:26 20° 271° (W) 23:22:41 437.445
CINEMA 3 25 Apr 23:17:55 23:19:25 11° 277° (W) 23:20:39 145.822/145.860
QB50P1 25 Apr 23:20:43 23:23:22 16° 89° (E) 23:26:11 145.935-145.965
Cosmos 2504 25 Apr 23:30:45 23:36:42 22° 56° (NE) 23:42:36 435.465 / 435.565
50 SAT 25 Apr 23:34:25 23:38:18 47° 261° (W) 23:42:15 437.505
ESTCUBE 1 25 Apr 23:39:37 23:44:08 86° 256° (WSW) 23:48:40 437.505/2401.250
TISAT 1 25 Apr 23:42:15 23:45:28 22° 65° (ENE) 23:48:47 437.305
UWE-3 25 Apr 23:44:05 23:46:16 13° 274° (W) 23:48:17 435.000/436.395/437.385
QB50P2 25 Apr 23:45:57 23:49:44 29° 95° (E) 23:53:32 145.880/145.840
O/OREOS (USA 219) 25 Apr 23:47:04 23:51:34 53° 300° (WNW) 23:56:04 437.305
FUNcube-1 25 Apr 23:54:13 23:56:18 13° 274° (W) 23:58:11 145.935
UKube-1 25 Apr 23:58:56 00:01:45 16° 270° (W) 00:04:26 .
TIGRISAT 26 Apr 00:00:17 00:05:03 79° 103° (ESE) 00:09:44 435.000
NANOSAT C BR1 26 Apr 00:04:02 00:08:08 43° 98° (E) 00:12:14 145.865
UNISAT 6 26 Apr 00:04:32 00:09:18 88° 106° (ESE) 00:13:59 437.425
POPSAT HIP 1 26 Apr 00:07:06 00:11:16 47° 99° (E) 00:15:26 437.405
SPROUT 26 Apr 00:11:07 00:15:15 51° 72° (ENE) 00:19:27 437.525
BEESAT 26 Apr 00:15:32 00:17:04 12° 56° (NE) 00:18:49 436.000
HUMSAT D 26 Apr 00:15:32 00:17:50 14° 273° (W) 00:19:58 437.325/437.525
SWISSCUBE 26 Apr 00:17:25 00:19:30 13° 57° (ENE) 00:21:46 437.505
VELOX 1 26 Apr 00:21:39 00:24:55 20° 269° (W) 00:28:05 145.980
CUBEBUG 1 26 Apr 00:26:31 00:30:26 32° 264° (W) 00:34:20 437.445
Cosmos 2491 26 Apr 00:32:06 00:40:37 54° 288° (WNW) 00:49:12 435.465 / 435.565
BUGSAT 1 26 Apr 00:32:35 00:36:41 61° 101° (E) 00:40:50 437.445
POLYITAN 1 26 Apr 00:36:43 00:41:04 84° 286° (WNW) 00:45:23 437.675
DUCHIFAT 1 26 Apr 00:37:56 00:42:14 85° 284° (WNW) 00:46:32 145.980
YUBILEINY 26 Apr 00:40:50 00:47:13 22° 282° (WNW) 00:53:13 435.215
AISAT 26 Apr 00:40:58 00:43:03 13° 273° (W) 00:44:56 437.250
ANTELSAT 26 Apr 00:46:53 00:51:17 38° 292° (WNW) 00:55:36 437.575/2403.000
QB50P1 26 Apr 00:55:26 00:59:38 55° 288° (WNW) 01:03:50 145.935-145.965
AIST 1 26 Apr 01:05:26 01:09:35 49° 94° (E) 01:13:45
TISAT 1 26 Apr 01:17:06 01:21:03 40° 262° (W) 01:25:02 437.305
RS-15 26 Apr 01:18:54 01:29:35 45° 248° (WSW) 01:40:31 29.354- 29.394
ITUPSAT 1 26 Apr 01:18:56 01:23:21 39° 68° (ENE) 01:27:49 437.325
QB50P2 26 Apr 01:21:49 01:25:38 30° 292° (WNW) 01:29:23 145.880/145.840
Cosmos 2504 26 Apr 01:23:20 01:31:34 89° 262° (W) 01:39:09 435.465 / 435.565
O/OREOS (USA 219) 26 Apr 01:31:47 01:32:09 10° 322° (NW) 01:32:20 437.305
TIGRISAT 26 Apr 01:38:24 01:41:14 16° 300° (WNW) 01:43:54 435.000
NANOSAT C BR1 26 Apr 01:40:26 01:43:45 22° 295° (WNW) 01:46:59 145.865
UNISAT 6 26 Apr 01:42:55 01:45:26 14° 301° (WNW) 01:47:46 437.425
POPSAT HIP 1 26 Apr 01:43:39 01:46:53 20° 296° (WNW) 01:50:00 437.405
Oscar 19 26 Apr 01:44:13 01:47:56 20° 89° (E) 01:51:47 437.125/150
KKS-1 26 Apr 01:47:44 01:50:23 16° 61° (ENE) 01:53:12 437.445
SPROUT 26 Apr 01:48:48 01:51:42 17° 270° (W) 01:54:30 437.525
BEESAT 26 Apr 01:49:24 01:54:11 75° 73° (ENE) 01:58:59 436.000
SWISSCUBE 26 Apr 01:51:54 01:56:41 84° 75° (ENE) 02:01:31 437.505
BUGSAT 1 26 Apr 02:09:15 02:11:47 16° 298° (WNW) 02:14:11 437.445
POLYITAN 1 26 Apr 02:14:55 02:16:20 11° 302° (WNW) 02:17:33 437.675
DUCHIFAT 1 26 Apr 02:16:04 02:17:25 11° 302° (WNW) 02:18:35 145.980
ITAMSAT 1 26 Apr 02:19:50 02:22:04 13° 85° (E) 02:24:34 435.822/435.867
DANDE 26 Apr 02:22:02 02:22:11 10° 49° (NE) 02:22:51 436.750
Cosmos 2491 26 Apr 02:36:05 02:40:13 13° 315° (NW) 02:43:53 435.465 / 435.565
STARS 26 Apr 02:40:59 02:44:51 32° 67° (ENE) 02:48:48 437.465
AIST 1 26 Apr 02:44:37 02:47:36 18° 294° (WNW) 02:50:27
BEESAT 3 26 Apr 02:45:11 02:48:13 21° 115° (ESE) 02:51:22 437.485
BEESAT 2 26 Apr 02:46:49 02:49:37 18° 113° (ESE) 02:52:33 435.950
Gurwin Techsat 1B 26 Apr 02:48:07 02:52:05 22° 90° (E) 02:56:11 435.225
ITUPSAT 1 26 Apr 02:57:14 03:01:22 28° 266° (W) 03:05:28 437.325
GONETS M04 26 Apr 03:05:05 03:13:00 36° 65° (ENE) 03:21:00
